Regional Weather Roundup
Issued by NWS

Home | Current Version | Previous Version | Graphics & Text | Print | Product List | Glossary On
Versions: 1 2 3 4 5 6 7 8 9 10 11 12 13 14 15 16 17 18 19 20 21 22 23 24 25 26 27 28 29 30 31 32 33 34 35 36 37 38 39 40 41 42 43 44 45 46 47 48 49 50
000
ASUS43 KMPX 200501
RWRMN
WEATHER ROUNDUP FOR MINNESOTA
NATIONAL WEATHER SERVICE TWIN CITIES/CHANHASSEN MN
1100 PM CST FRI JAN 19 2018


NOTE: "FAIR" INDICATES FEW OR NO CLOUDS BELOW 12,000 FEET WITH NO
SIGNIFICANT WEATHER AND/OR OBSTRUCTIONS TO VISIBILITY. N/A MEANS
CURRENT SKY AND/OR WEATHER CONDITIONS ARE NOT AVAILABLE.

MNZ060>063-068>070-200600-
   Twin Cities Metro

CITY           SKY/WX    TMP DP  RH WIND       PRES   REMARKS
TWIN CITIES    MOCLDY    36  31  82 SW5       29.68R
ST PAUL        FAIR      28  28 100 CALM      29.69R
CRYSTAL        FAIR      36  27  69 W5        29.67R
BLAINE         FAIR      37  30  75 W5        29.67R
LAKEVILLE      FAIR      34  30  86 W7        29.68R WCI  28
EDEN PRAIRIE   FAIR      35  29  78 W3        29.67R
SOUTH ST PAUL  FAIR      36  30  79 CALM      29.68R
LAKE ELMO      FAIR      36  30  80 W3        29.67R
$$
MNZ001>005-007-008-013>017-022>024-027-028-200600-
   Northwest Minnesota

CITY           SKY/WX    TMP DP  RH WIND       PRES   REMARKS
BEMIDJI        FAIR      29  27  92 W7        29.63R WCI  22
HALLOCK        FAIR      23  21  93 SW12      29.62R WCI  12
ROSEAU         CLOUDY    34  28  80 SW8       29.59R WCI  27
WARROAD        CLOUDY    34  28  80 W9G17     29.59R WCI  26
CROOKSTON      FAIR      30  27  86 W9        29.66R WCI  22
FOSSTON        FAIR      21  21 100 SW5       29.66R WCI  15
DETROIT LAKES  FAIR      32  30  93 W10       29.69R WCI  24
MOORHEAD       FAIR      30  27  86 CALM      29.71R
PARK RAPIDS    FAIR      27  24  89 W6        29.65R WCI  20
MAHNOMEN       FAIR      25  24  94 SW10      29.67R WCI  15
$$
MNZ006-009>011-018-025>026-200600-
   North Central Minnesota

CITY           SKY/WX    TMP DP  RH WIND       PRES   REMARKS
BAUDETTE       CLOUDY    33  30  88 SW5       29.57R WCI  29
FLAG ISLAND    CLOUDY    34  30  86 W6        29.55R WCI  29
INTL FALLS     CLOUDY    34  28  79 W7        29.56R WCI  28
WASKISH        FAIR      32  30  93 SW7       29.61R WCI  26
BIG FORK       CLOUDY    36  30  80 SW6       29.61R
LONGVILLE      FAIR      28  27  93 W3        29.64R
GRAND RAPIDS   FAIR      33  28  81 NW8       29.64R WCI  26
CRANE LAKE     CLOUDY    36  30  80 W5        29.58R
ORR            CLOUDY    34  28  80 W9        29.56R WCI  26
COOK           CLOUDY    36  30  80 W10       29.59R
WALKER         FAIR      32  28  86 W8        29.64R WCI  25
$$
MNZ012-019>021-037-200600-
   Northeast Minnesota

CITY           SKY/WX    TMP DP  RH WIND       PRES   REMARKS
DULUTH         FAIR      36  29  75 NW14      29.58R
ELY            CLOUDY    36  30  80 W12G17    29.55R
HIBBING        CLOUDY    34  29  82 NW14      29.61R WCI  25
EVELETH        CLOUDY    35  28  74 W10G18    29.61R WCI  27
DULUTH HARBOR  FAIR      39  30  70 W16       29.60R
TWO HARBORS    FAIR      39  30  70 W10G18    29.55R
GRAND MARAIS     N/A     40  32  73 W8        29.50R
G MARAIS ARPRT CLOUDY    34  27  75 W9G18     29.48R WCI  26
$$
MNZ029>031-032-039>041-046>048-054>057-064-200600-
   West Central Minnesota

CITY           SKY/WX    TMP DP  RH WIND       PRES   REMARKS
FERGUS FALLS   FAIR      27  27 100 W5        29.71R FOG     WCI  21
MORRIS         CLOUDY    30  27  86 NW7       29.71R WCI  23
ALEXANDRIA     FAIR      31  28  89 NW8       29.69R WCI  23
ELBOW LAKE     FAIR      30  28  92 W7        29.71R WCI  23
WADENA         FAIR      27  27 100 W7        29.68R WCI  19
GLENWOOD       FAIR      32  28  86 W7        29.70R WCI  26
APPLETON       MOCLDY    30  27  86 W3        29.72R
BENSON         PTCLDY    28  27  93 W7        29.73R WCI  21
ORTONVILLE     CLOUDY    34  27  75 W7        29.72R WCI  28
MADISON        CLOUDY    36  30  80 W5        29.73R
WILLMAR        FAIR      34  28  80 NW6       29.74R WCI  29
$$
MNZ033>034-036-042>043-049>051-058-059-200600-
   Central Minnesota

CITY           SKY/WX    TMP DP  RH WIND       PRES   REMARKS
ST CLOUD       FAIR      33  28  81 W5        29.68R WCI  29
SAUK CENTRE      N/A     30  28  90 W3        29.69R
PAYNESVILLE    FAIR      30  29  97 W6        29.71R WCI  24
AITKIN         FAIR      30  27  86 W5        29.63R WCI  25
PINE RIVER     FAIR      30  27  86 CALM      29.70R
BRAINERD       FAIR      34  28  79 W9        29.66R WCI  27
STAPLES        FAIR      27  25  93 W9        29.67R WCI  17
LONG PRAIRIE   FAIR      32  28  86 W5        29.68R WCI  27
LITTLE FALLS   FAIR      32  25  74 NW3       29.68R
LITCHFIELD     FAIR      36  32  87 CALM      29.71R
BUFFALO        FAIR      34  29  82 W3        29.69R
MAPLE LAKE     FAIR      35  31  85 MISG      29.69R
HUTCHINSON     FAIR      33  32  94 W7        29.71R WCI  27
$$
MNZ037-044-045-052-053-200600-
   East Central Minnesota

CITY           SKY/WX    TMP DP  RH WIND       PRES   REMARKS
PRINCETON      FAIR      36  28  75 CALM      29.67R
MORA           FAIR      32  28  86 NW5       29.67R WCI  27
CAMBRIDGE        N/A     37  28  70 W3        29.67R
RUSH CITY      FAIR      35  28  76 W5        29.66R WCI  31
MOOSE LAKE     FAIR      36  28  75 W5        29.61R
HINCKLEY       FAIR      32  28  86 W3        29.64R
CLOQUET        FAIR      34  27  75 W8        29.60R WCI  27
MCGREGOR       FAIR      34  30  86 W6        29.64R WCI  29
$$
MNZ071>073-080-081-089-090-097-098-200600-
   Southwest Minnesota

CITY           SKY/WX    TMP DP  RH WIND       PRES   REMARKS
MONTEVIDEO     CLOUDY    36  28  75 NW5       29.73R
GRANITE FALLS  CLOUDY    33  30  89 W8        29.74R WCI  26
CANBY          CLOUDY    37  30  76 SW6       29.75R
MARSHALL       CLOUDY    35  28  75 W8        29.74R WCI  29
REDWOOD FALLS  PTCLDY    34  29  82 W8        29.72R WCI  27
OLIVIA         PTCLDY    34  32  93 NW7       29.72R WCI  28
PIPESTONE      CLOUDY    30  28  93 NW3       29.74R
WINDOM         CLOUDY    36  19  51 W7        29.73R
WORTHINGTON    CLOUDY    32  29  88 W6        29.74R WCI  26
JACKSON        PTCLDY    36  30  80 W6        29.73R
TRACY          CLOUDY    37  30  77 W6        29.73R
SLAYTON        CLOUDY    32  29  89 W7        29.74R WCI  26
$$
MNZ065>067-074>077-082>085-091>093-200600-
   South Central Minnesota

CITY           SKY/WX    TMP DP  RH WIND       PRES   REMARKS
MANKATO        FAIR      36  30  79 W6        29.71R
NEW ULM        CLOUDY    32  28  86 NW7       29.71R WCI  26
ST JAMES       CLOUDY    37  30  75 W9        29.72R
FAIRMONT       CLOUDY    36  30  79 NW5       29.72R
FARIBAULT      FAIR      36  30  80 CALM      29.69R
OWATONNA       FAIR      36  30  80 W3        29.69R
WASECA         FAIR      36  32  87 NW7       29.70R
ALBERT LEA     FAIR      36  30  80 W5        29.70R
$$
MNZ078>079-086>088-094>096-200600-
   Southeast Minnesota

CITY           SKY/WX    TMP DP  RH WIND       PRES   REMARKS
ROCHESTER      FAIR      32  30  92 SW7       29.68R WCI  26
RED WING       FAIR      28  27  93 NW3       29.68R
STANTON        FAIR      33  30  88 SW5       29.67R WCI  29
DODGE CENTER   FAIR      37  30  75 W9        29.68R
WINONA         FAIR      34  32  93 CALM      29.68R
PRESTON        FAIR      35  30  84 SW6       29.68S WCI  30
$$
ABBREVIATIONS USED IN REMARKS
   TC - TEMPERATURES IN CELSIUS
  WCI - WIND CHILL INDEX
   HX - HEAT INDEX
  VSB - VISIBILITY
$$




USA.gov is the U.S. government's official web portal to all federal, state and local government web resources and services.